Regional Weather Roundup
Issued by NWS Portland, ME

Home | Current Version | Previous Version | Text Only | Print | Product List | Glossary On
Versions: 1 2 3 4 5 6 7 8 9 10 11 12 13 14 15 16 17 18 19 20 21 22 23 24 25 26 27 28 29 30 31 32 33 34 35 36 37 38 39 40 41 42 43 44 45 46 47 48 49 50
000
ASUS41 KGYX 050910
RWRGYX
WEATHER ROUNDUP FOR MAINE AND NEW HAMPSHIRE
NATIONAL WEATHER SERVICE GRAY ME
500 AM EDT THU MAY 05 2016

MEZ002-005-006-010-012-015-018-020-021-024-026-027-029-051000-
MAINE

CITY           SKY/WX    TMP DP  RH WIND       PRES   REMARKS
PORTLAND       DRIZZLE   43  42  97 N8        29.79S
SANFORD        CLOUDY    43  39  87 N10       29.79S
BAR HARBOR     CLOUDY    42  40  92 NE15      29.81S
WISCASSET      CLOUDY    44  41  89 VRB3      29.81R
ROCKLAND       CLOUDY    43  41  93 NE16G23   29.78F FOG
FRYEBURG       CLOUDY    44  42  93 N3        29.81F
LEWISTONAUBURN CLOUDY    43  39  87 N10       29.80S
AUGUSTA        CLOUDY    42  41  96 NE9       29.82S
WATERVILLE     CLOUDY    42  41  96 NE10      29.79F
BANGOR         CLOUDY    45  41  86 N14       29.83F
GREENVILLE       N/A     38  37  97 VRB3      29.81F
MILLINOCKET    LGT RAIN  40  38  93 E8        29.89F
HOULTON        LGT RAIN  39  36  89 NE9       29.91R
PRESQUE ISLE   LGT RAIN  42  35  76 NE9       29.94R
FRENCHVILLE    CLOUDY    41  33  73 NE7       29.93R
CARIBOU        CLOUDY    42  35  76 NE5       29.92S
$$

NHZ002-005-008-009-011-012-014-051000-
NEW HAMPSHIRE

CITY           SKY/WX    TMP DP  RH WIND       PRES   REMARKS
PORTSMOUTH     MIX PCPN  43  41  93 N8        29.77S FOG
ROCHESTER      CLOUDY    43  40  89 N7        29.77F
NASHUA         CLOUDY    42  41  96 N7        29.78S
MANCHESTER     DRIZZLE   43  41  93 N7        29.76F FOG
CONCORD        CLOUDY    43  40  89 NW5       29.79F
LACONIA        CLOUDY    43  39  87 NE8       29.79F
PLYMOUTH       CLOUDY    43  42  97 CALM      29.79F
BERLIN         CLOUDY    43  39  86 NE3       29.80F
WHITEFIELD     CLOUDY    45  37  73 E9        29.79S
JAFFREY        CLOUDY    40  38  93 VRB6      29.76F FOG
KEENE          CLOUDY    43  39  87 N7        29.79R
LEBANON        CLOUDY    44  42  93 CALM      29.79F
MT WASHINGTON  FOG       32  32 100 NE12        N/A  VSB 1/16
$$

VTZ005-007-008-051000-
VERMONT

CITY           SKY/WX    TMP DP  RH WIND       PRES   REMARKS
ST JOHNSBURY     N/A     45  42  89 MISG      29.78F
MONTPELIER     CLOUDY    43  42  97 CALM      29.83S FOG
BURLINGTON     CLOUDY    47  43  86 CALM      29.80S
$$

MAZ007-012-024-CTZ003-RIZ002-NYZ038-NYZ072-051000-
SOUTHERN NEW ENGLAND AND NY

CITY           SKY/WX    TMP DP  RH WIND       PRES   REMARKS
BOSTON         CLOUDY    44  42  93 NE15G22   29.76S FOG
WORCESTER      CLOUDY    39  38  96 N9G17     29.72S FOG
NANTUCKET      LGT RAIN N/A N/A N/A N21G30    29.64S
PROVIDENCE     CLOUDY    45  42  89 N16       29.71S
HARTFORD       CLOUDY    45  39  79 N12       29.73S
ALBANY         CLOUDY    47  44  90 N6        29.76S
NEW YORK CITY  CLOUDY    48  45  87 NE13      29.70S
$$

ANZ081-ANZ082-ANZ150-NHZ014-MEZ023>029-051000-
COASTAL MARINE OBSERVATIONS

STATION/POSITION TIME  TEMP    WIND        PRES    WAVE
                       AIR SEA DIR/SP/G            HT/PER
                 (UTC) (F)     (DEG/KT/KT) (MB)    (FT/S)
MOUNT DESERT ROC 0900   41      30/ 31/ 34 1007.4F
MATINICUS ROCK   0800   42      40/ 26/ 30 1006.9F
ISLE OF SHOALS   0800   44      10/ 19/ 22 1007.7R
CASHES LEDGE BUO 0850   44 44   30/ 17/ 21 1006.5R   8/ 7
GEORGES BANK BUO 0850   56 46              1003.0R   6/ 9
$$

.............KEY..............
   WCI - WIND CHILL
   TC  - TEMPERATURE IN CELSIUS
   VSB - VISIBILITY IN MILES
   HX  - HEAT INDEX
   FAIR- INDICATES FEW OR NO CLOUDS BELOW 12,000 FT, WITH NO
         SIGNIFICANT WEATHER AND/OR OBSTRUCTIONS TO VISIBILITY.






USA.gov is the U.S. government's official web portal to all federal, state and local government web resources and services.